GW1554 Weather Reports


Display with metric or nautical units.
time (UTC)temp
F
wind
direction
speed
MPH
gust
MPH
rain 1hr
in
rain 24hr
in
rain mn
in
humidity
%
barometer
mb
20260831210012 70 333 2.0 3.0 0.00 0.00 0.00 79 1016.4
20260831204517 71 16 0.0 2.0 0.00 0.00 0.00 84 1016.3
20260831203012 71 306 0.0 3.0 0.00 0.00 0.00 85 1016.1
20260831201510 70 17 1.0 3.0 0.00 0.00 0.00 82 1016.0
20260831200012 70 270 0.0 1.0 0.00 0.00 0.00 82 1015.8
20260831194508 71 269 0.0 0.0 0.00 0.00 0.00 84 1015.8
20260831193009 71 275 0.0 3.0 0.00 0.00 0.00 82 1015.7
20260831191508 72 87 0.0 1.0 0.00 0.00 0.00 82 1015.7
20260831190007 72 355 0.0 2.0 0.00 0.00 0.00 79 1015.4
20260831184505 73 288 1.0 2.0 0.00 0.00 0.00 83 1015.3
20260831183005 73 287 0.0 1.0 0.00 0.00 0.00 81 1015.3
20260831181506 74 279 1.0 3.0 0.00 0.00 0.00 80 1015.1
20260831180006 75 207 1.0 4.0 0.00 0.00 0.00 79 1015.1
20260831174501 76 234 0.0 3.0 0.00 0.00 0.00 77 1015.0
20260831173103 77 237 0.0 4.0 0.00 0.00 0.00 74 1015.1
20260831171700 78 205 2.0 6.0 0.00 0.00 0.00 72 1015.1
20260831170059 80 256 2.0 5.0 0.00 0.00 0.00 70 1015.1
20260831164558 80 239 1.0 5.0 0.00 0.00 0.00 70 1015.2
20260831163158 81 221 1.0 5.0 0.00 0.00 0.00 69 1015.4
20260831161605 82 181 1.0 5.0 0.00 0.00 0.00 68 1015.3
20260831160059 81 208 4.0 7.0 0.00 0.00 0.00 70 1015.5
20260831154557 81 173 1.0 3.0 0.00 0.00 0.00 71 1015.4
20260831153055 80 104 3.0 9.0 0.00 0.00 0.00 72 1015.5
20260831151559 81 229 1.0 5.0 0.00 0.00 0.00 72 1015.6
20260831150057 81 269 1.0 7.0 0.00 0.00 0.00 74 1015.7
20260831144552 81 218 1.0 8.0 0.00 0.00 0.00 74 1015.8
20260831143108 81 230 3.0 6.0 0.00 0.00 0.00 74 1015.7
20260831141556 82 142 3.0 9.0 0.00 0.00 0.00 72 1015.9
20260831140053 81 225 1.0 7.0 0.00 0.00 0.00 75 1015.9
20260831134550 81 114 4.0 8.0 0.00 0.00 0.00 75 1015.8
20260831133050 80 71 4.0 8.0 0.00 0.00 0.00 76 1016.0
20260831131549 81 318 3.0 9.0 0.00 0.00 0.00 75 1016.1
20260831130052 81 192 3.0 8.0 0.00 0.00 0.00 76 1016.2
20260831124548 81 118 4.0 9.0 0.00 0.00 0.00 75 1016.1
20260831123047 83 195 2.0 7.0 0.00 0.00 0.00 73 1016.1
20260831121550 82 115 2.0 6.0 0.00 0.00 0.00 74 1016.3
20260831120045 81 107 3.0 7.0 0.00 0.00 0.00 76 1016.3
20260831114551 81 283 3.0 7.0 0.00 0.00 0.00 76 1016.5
20260831113044 82 131 1.0 6.0 0.00 0.00 0.00 75 1016.4
20260831111549 81 115 2.0 9.0 0.00 0.00 0.00 75 1016.6
20260831110056 82 204 4.0 7.0 0.00 0.00 0.00 73 1016.6
20260831104544 81 221 2.0 8.0 0.00 0.00 0.00 73 1016.5
20260831103041 82 116 2.0 8.0 0.00 0.00 0.00 72 1016.6
20260831101545 82 223 3.0 7.0 0.00 0.00 0.00 71 1016.6
20260831100037 83 285 3.0 6.0 0.00 0.00 0.00 69 1016.7
20260831094540 82 96 2.0 8.0 0.00 0.00 0.00 69 1016.7
20260831093033 82 212 2.0 5.0 0.00 0.00 0.00 66 1016.6
20260831091541 82 259 2.0 6.0 0.00 0.00 0.00 67 1016.6
20260831090030 82 248 2.0 5.0 0.00 0.00 0.00 66 1016.5
20260831084526 81 147 0.0 5.0 0.00 0.00 0.00 67 1016.5
20260831083022 81 129 2.0 4.0 0.00 0.00 0.00 65 1016.3
20260831081520 79 296 0.0 2.0 0.00 0.00 0.00 61 1016.3
20260831080017 79 255 1.0 3.0 0.00 0.00 0.00 64 1016.2
20260831074515 77 300 2.0 3.0 0.00 0.00 0.00 65 1016.3
20260831073012 77 269 1.0 3.0 0.00 0.00 0.00 68 1016.2
20260831071512 77 282 1.0 3.0 0.00 0.00 0.00 68 1016.0
20260831070013 76 203 0.0 1.0 0.00 0.00 0.00 68 1015.8
20260831064508 76 275 0.0 2.0 0.00 0.00 0.00 69 1015.7
20260831063004 75 280 1.0 2.0 0.00 0.00 0.00 70 1015.7
20260831061601 74 321 0.0 2.0 0.00 0.00 0.00 73 1015.8
20260831060058 73 345 0.0 2.0 0.00 0.00 0.00 73 1015.8
20260831054604 72 319 0.0 6.0 0.00 0.00 0.00 73 1015.7
20260831053056 71 347 0.0 3.0 0.00 0.00 0.00 74 1015.8
20260831051553 71 12 1.0 5.0 0.00 0.00 0.00 74 1015.6
20260831050055 70 339 2.0 4.0 0.00 0.00 0.00 74 1015.5
20260831044610 70 1 1.0 3.0 0.00 0.00 0.00 73 1015.5
20260831043053 69 283 0.0 2.0 0.00 0.00 0.00 73 1015.5
20260831041610 70 326 1.0 2.0 0.00 0.00 0.00 72 1015.5
20260831040050 70 322 0.0 2.0 0.00 0.00 0.00 70 1015.3
20260831034550 70 293 0.0 1.0 0.00 0.00 0.00 70 1015.4
20260831033048 70 291 0.0 2.0 0.00 0.00 0.00 72 1015.5
20260831031547 70 309 0.0 3.0 0.00 0.00 0.00 73 1015.4
20260831030051 70 3 1.0 5.0 0.00 0.00 0.00 73 1015.5
20260831024545 70 35 1.0 5.0 0.00 0.00 0.00 74 1015.6
20260831023043 70 352 0.0 2.0 0.00 0.00 0.00 75 1015.6
20260831021541 70 352 0.0 3.0 0.00 0.00 0.00 75 1015.6
20260831020040 71 338 1.0 4.0 0.00 0.00 0.00 74 1015.4
20260831014539 71 30 3.0 8.0 0.00 0.00 0.00 75 1015.5
20260831013040 71 321 3.0 8.0 0.00 0.00 0.00 75 1015.8
20260831011542 71 331 1.0 7.0 0.00 0.00 0.00 75 1015.7
20260831010036 71 49 2.0 6.0 0.00 0.00 0.00 75 1015.4
20260831004536 71 346 2.0 4.0 0.00 0.00 0.00 75 1015.6
20260831003040 71 329 3.0 6.0 0.00 0.00 0.00 74 1015.7
20260831001532 70 345 3.0 7.0 0.00 0.00 0.00 76 1015.9
20260831000031 70 326 3.0 7.0 0.00 0.00 0.00 76 1016.1
20260830234540 71 339 3.0 5.0 0.00 0.00 0.00 76 1015.9
20260830233029 71 325 1.0 4.0 0.00 0.00 0.00 75 1016.1
20260830231535 71 338 1.0 3.0 0.00 0.00 0.00 76 1016.1
20260830230039 71 321 1.0 5.0 0.00 0.00 0.00 76 1016.2
20260830224525 71 10 2.0 6.0 0.00 0.00 0.00 76 1016.3
20260830223024 71 23 2.0 6.0 0.00 0.00 0.00 77 1016.2
20260830221522 71 325 3.0 8.0 0.00 0.00 0.00 77 1016.3
20260830220025 71 293 2.0 6.0 0.00 0.00 0.00 77 1016.3
20260830214520 70 313 2.0 4.0 0.00 0.00 0.00 78 1016.2
20260830213021 70 322 2.0 6.0 0.00 0.00 0.00 77 1016.1
20260830211522 71 337 1.0 4.0 0.00 0.00 0.00 77 1016.2